Terminal Aerodrome Forecast
Issued by NWS

Home | Current Version | Previous Version | Text Only | Print | Product List | Glossary On
Versions: 1 2 3 4 5 6 7 8 9 10 11 12 13 14 15 16 17 18 19 20 21 22 23 24 25 26 27 28 29 30 31 32 33 34 35 36 37 38 39 40 41 42 43 44 45 46 47 48 49 50
000
FTUS41 KCTP 202333
TAFJST
TAF
KJST 202333Z 2100/2124 20007KT P6SM OVC045
     FM210200 21007KT P6SM VCSH SCT025 OVC050
     FM210700 22006KT 5SM BR BKN030 OVC050
     FM211200 26006KT 3SM BR OVC005
     FM211700 29008KT P6SM VCSH OVC015=

USA.gov is the U.S. government's official web portal to all federal, state and local government web resources and services.